Regional Weather Roundup
Issued by NWS

Home | Current Version | Previous Version | Text Only | Print | Product List | Glossary On
Versions: 1 2 3 4 5 6 7 8 9 10 11 12 13 14 15 16 17 18 19 20 21 22 23 24 25 26 27 28 29 30 31 32 33 34 35 36 37 38 39 40 41 42 43 44 45 46 47 48 49 50
000
ASCA42 TJSJ 280610
RWRPR
PUERTO RICO/U.S. VIRGIN ISLANDS HOURLY WEATHER ROUNDUP
NATIONAL WEATHER SERVICE SAN JUAN PR
200 AM AST TUE JUL 28 2015

PRZ001-004-280700-
PUERTO RICO

CITY           SKY/WX    TMP DP  RH WIND       PRES   REMARKS
SAN JUAN LMM   PTCLDY    81  75  83 E6        30.03F
PONCE          PTCLDY    82  72  69 NE6       29.99S
$$

PRZ006-007-280700-
U.S. VIRGIN ISLANDS

CITY           SKY/WX    TMP DP  RH WIND       PRES   REMARKS
CHARLOTTE AMA  PTCLDY    82  73  74 NE6       30.01F
CHRISTIANSTED  MOCLDY    82  75  78 NE12      30.00F
$$

HOURLY WEATHER ROUNDUP FOR THE NEWS MEDIA

CITY           SKY/WX    TMP DP  RH WIND       PRES   REMARKS
ORLANDO        PTCLDY    78  76  93 S7        29.94F
NEW YORK       PTCLDY    75  69  81 SW8       30.02F
NEWARK         MOCLDY    76  68  76 SW8       30.01S
CHICAGO        MOCLDY    74  67  78 E6        29.99F
HARTFORD       CLOUDY    70  69  97 SW6       30.00F FOG
BOSTON         CLEAR     72  69  90 SW13      29.99S
DALLAS         CLEAR     88  67  49 S8        29.92S HX  91
PHILADELPHIA   MOCLDY    76  71  85 CALM      30.02S
LOS ANGELES    MOCLDY    68  64  87 W6        29.91S
WASHINGTON DC  PTCLDY    71  70  96 CALM      30.02S



USA.gov is the U.S. government's official web portal to all federal, state and local government web resources and services.